Weerstation Grootegast  Weerstation Grootegast


15 daagse weersverwachting Rimini (IT)

  • Overzicht
  • Per uur
  • 15 dagen
  • Extra
  • Vergelijk
  • Kaarten
  • Dagkaart
  • Meer »
  • Info
  • Statistieken
  • Directe link
    Temp 6h Neerslag Wind  
 07:05     17:43    Daglengte: 10:38 Vandaag
01:00
1.4 mm
3
07:00
16.8 mm
6
13:00
36.1 mm
9
19:00
37.8 mm
9
 07:03     17:44    Daglengte: 10:41 Morgen
01:00
62.2 mm
7
07:00
58.9 mm
8
13:00
45.4 mm
7
19:00
 
6
 07:01     17:46    Daglengte: 10:45 Dinsdag 20 Feb
01:00
35.9 mm
6
07:00
 
7
13:00
221.7 mm
6
19:00
221.7 mm
3
Locatie info
Region: Emilia Romagna
Latitude: 44.0554°N
Longitude: 12.5700°E
10 masl
Postcode: 47923
Temp/Neerslag /Baro Onweer/Dauwpunt
    Temp Baro 1h Neerslag Dauwpunt Wind UV Bewolking  
 07:05     17:43    Daglengte: 10:38 Vandaag
01:00
Voelt als: 6.1°
1016.6 hPa 1.4 mm
21%
7.1°
3
Windvlaag: -0.7 m/s
81%
02:00
Voelt als: 5.7°
1016.5 hPa 1.7 mm
21%
7.0°
3
Windvlaag: -1 m/s
81%
03:00
Voelt als: 5.6°
1016.1 hPa 2.2 mm
21%
6.8°
4
Windvlaag: -1.2 m/s
81%
04:00
Voelt als: 4.9°
1015.7 hPa 2.7 mm
21%
6.4°
5
Windvlaag: -1.7 m/s
81%
05:00
Voelt als: 4.3°
1015.7 hPa 3.0 mm
21%
6.0°
6
Windvlaag: -1.9 m/s
81%
06:00
Voelt als: 3.7°
1016.0 hPa 3.4 mm
21%
5.5°
6
Windvlaag: -2.2 m/s
81%
07:00
Voelt als: 3.3°
1015.9 hPa 3.9 mm
21%
5.3°
6
Windvlaag: -2.2 m/s
81%
08:00
Voelt als: 3.2°
1016.1 hPa 4.4 mm
21%
5.2°
6
Windvlaag: -1 m/s
81%
09:00
Voelt als: 3.1°
1016.3 hPa 5.0 mm
21%
5.4°
7
Windvlaag: -1.1 m/s
81%
10:00
Voelt als: 3.4°
1016.5 hPa 6.1 mm
21%
5.3°
7
Windvlaag: -1 m/s
81%
11:00
Voelt als: 3.7°
1016.5 hPa 6.6 mm
21%
5.3°
7
Windvlaag: -1.2 m/s
79%
12:00
Voelt als: 3.7°
1016.5 hPa 6.9 mm
21%
4.6°
8
Windvlaag: 0 m/s
79%
13:00
Voelt als: 3.4°
1016.2 hPa 7.2 mm
21%
4.7°
9
Windvlaag: 0.9 m/s
80%
14:00
Voelt als: 3.0°
1016.0 hPa 7.2 mm
21%
5.0°
10
Windvlaag: 0.6 m/s
78%
15:00
Voelt als: 2.8°
1016.5 hPa 6.9 mm
21%
4.2°
10
Windvlaag: 0 m/s
80%
16:00
Voelt als: 2.8°
1017.0 hPa 7.0 mm
21%
3.8°
9
Windvlaag: 0.4 m/s
81%
17:00
Voelt als: 3.1°
1017.2 hPa 8.0 mm
21%
3.8°
9
Windvlaag: 0.4 m/s
81%
18:00
Voelt als: 4.0°
1017.5 hPa 8.6 mm
21%
4.0°
8
Windvlaag: 0.5 m/s
80%
19:00
Voelt als: 3.9°
1018.0 hPa
21%
3.7°
9
Windvlaag: -0.7 m/s
81%
20:00
Voelt als: 3.8°
1018.0 hPa 23.9 mm
21%
3.8°
9
Windvlaag: -3 m/s
81%
21:00
Voelt als: 3.7°
1018.2 hPa 7.6 mm
21%
3.9°
9
Windvlaag: -3.4 m/s
77%
22:00
Voelt als: 3.7°
1018.2 hPa 7.5 mm
21%
3.9°
9
Windvlaag: -3.5 m/s
80%
23:00
Voelt als: 3.9°
1018.1 hPa 7.4 mm
21%
3.8°
8
Windvlaag: -2.8 m/s
79%
 07:03     17:44    Daglengte: 10:41 Morgen
00:00
Voelt als: 4.0°
1018.0 hPa 7.6 mm
21%
4.1°
7
Windvlaag: -2 m/s
79%
01:00
Voelt als: 4.1°
1017.9 hPa 8.2 mm
21%
4.0°
7
Windvlaag: -2.9 m/s
79%
02:00
Voelt als: 3.8°
1017.8 hPa 8.7 mm
21%
3.8°
7
Windvlaag: -4.2 m/s
76%
03:00
Voelt als: 3.6°
1017.3 hPa 9.2 mm
21%
3.8°
7
Windvlaag: -5.1 m/s
79%
04:00
Voelt als: 3.4°
1017.0 hPa 9.8 mm
21%
3.7°
8
Windvlaag: -5.3 m/s
81%
05:00
Voelt als: 3.0°
1016.9 hPa 10.3 mm
21%
3.6°
8
Windvlaag: -5.1 m/s
81%
06:00
Voelt als: 2.9°
1017.0 hPa 10.4 mm
21%
3.5°
8
Windvlaag: -4.9 m/s
81%
07:00
Voelt als: 3.0°
1017.1 hPa 10.5 mm
21%
3.4°
8
Windvlaag: -4.9 m/s
78%
08:00
Voelt als: 3.1°
1017.3 hPa 10.5 mm
21%
3.6°
8
Windvlaag: -5.1 m/s
81%
09:00
Voelt als: 3.1°
1017.4 hPa 11.0 mm
21%
3.7°
7
Windvlaag: -4.9 m/s
77%
10:00
Voelt als: 3.0°
1017.5 hPa 11.8 mm
21%
3.3°
7
Windvlaag: -4.9 m/s
81%
11:00
Voelt als: 2.7°
1017.4 hPa 12.1 mm
21%
2.8°
7
Windvlaag: -4.5 m/s
81%
12:00
Voelt als: 2.6°
1017.0 hPa
21%
2.6°
7
Windvlaag: -4 m/s
71%
13:00
Voelt als: 2.5°
1016.4 hPa
21%
2.7°
7
Windvlaag: -4 m/s
63%
14:00
Voelt als: 2.5°
1016.1 hPa
21%
2.7°
8
Windvlaag: -4.3 m/s
57%
15:00
Voelt als: 2.5°
1015.6 hPa
21%
2.3°
7
Windvlaag: -4 m/s
51%
16:00
Voelt als: 2.8°
1015.4 hPa
21%
1.6°
7
Windvlaag: -3.2 m/s
40%
17:00
Voelt als: 3.1°
1015.2 hPa
21%
1.1°
6
Windvlaag: -2.5 m/s
36%
18:00
Voelt als: 3.1°
1015.0 hPa
21%
0.8°
5
Windvlaag: -1.6 m/s
36%
19:00
Voelt als: 2.9°
1014.7 hPa
21%
0.5°
6
Windvlaag: -0 m/s
33%
20:00
Voelt als: 2.8°
1014.5 hPa 35.9 mm
21%
0.1°
6
Windvlaag: 0.1 m/s
34%
21:00
Voelt als: 2.5°
1014.4 hPa
21%
-0.1°
6
Windvlaag: 0.5 m/s
33%
22:00
Voelt als: 1.5°
1014.8 hPa
100%
0.7°
5
Windvlaag: 1 m/s
41%
23:00
Voelt als: 1.4°
1014.3 hPa
100%
0.5°
5
Windvlaag: 1.4 m/s
46%
 07:01     17:46    Daglengte: 10:45 Dinsdag 20 Feb
00:00
Voelt als: 1.0°
1013.9 hPa
100%
0.4°
5
Windvlaag: 1.3 m/s
57%
01:00
Voelt als: 0.3°
1013.4 hPa
100%
0.1°
6
Windvlaag: 0.9 m/s
65%
02:00
Voelt als: -0.1°
1012.9 hPa
100%
-0.1°
6
Windvlaag: 0.4 m/s
65%
03:00
Voelt als: -0.3°
1011.7 hPa
100%
-0.2°
6
Windvlaag: -0.1 m/s
55%
04:00
Voelt als: -0.6°
1011.1 hPa
100%
0.0°
7
Windvlaag: -0.7 m/s
61%
05:00
Voelt als: -1.3°
1010.8 hPa
100%
-0.1°
7
Windvlaag: -0.8 m/s
73%
06:00
Voelt als: -2.2°
1010.5 hPa
100%
-0.5°
7
Windvlaag: -0.4 m/s
77%
07:00
Voelt als: -2.7°
1010.4 hPa
100%
-2.0°
7
Windvlaag: -0.5 m/s
63%
08:00
Voelt als: -2.8°
1009.4 hPa 37.0 mm
100%
-2.8°
7
Windvlaag: 9.8 m/s
20%
09:00
Voelt als: -1.8°
1009.3 hPa 37.0 mm
100%
-2.6°
7
Windvlaag: 9.6 m/s
31%
10:00
Voelt als: 0.1°
1008.9 hPa 37.0 mm
100%
-2.0°
7
Windvlaag: 7.8 m/s
13%
11:00
Voelt als: 1.4°
1008.5 hPa 37.0 mm
100%
-1.3°
7
Windvlaag: 6.8 m/s
0%
12:00
Voelt als: 2.1°
1008.0 hPa 37.0 mm
100%
-1.0°
7
Windvlaag: 6.5 m/s
11%
13:00
Voelt als: 2.8°
1007.4 hPa 37.0 mm
100%
-0.9°
6
Windvlaag: 5.9 m/s
7%
14:00
Voelt als: 3.3°
1006.7 hPa 37.0 mm
100%
-0.6°
6
Windvlaag: 5.8 m/s
24%
15:00
Voelt als: 3.6°
1006.3 hPa 37.0 mm
100%
-0.1°
5
Windvlaag: 5.4 m/s
40%
16:00
Voelt als: 3.7°
1005.8 hPa 37.0 mm
100%
0.1°
5
Windvlaag: 5.6 m/s
36%
17:00
Voelt als: 3.8°
1005.3 hPa 37.0 mm
100%
0.2°
4
Windvlaag: 5.2 m/s
13%
18:00
Voelt als: 3.9°
1005.0 hPa 37.0 mm
100%
0.5°
3
Windvlaag: 4.9 m/s
9%
19:00
Voelt als: 3.8°
1005.0 hPa 37.0 mm
100%
0.8°
3
Windvlaag: 4.8 m/s
0%
20:00
Voelt als: 3.6°
1005.0 hPa 37.0 mm
100%
1.0°
3
Windvlaag: 4.4 m/s
6%
21:00
Voelt als: 4.4°
1005.0 hPa 37.0 mm
100%
1.2°
2
Windvlaag: 3.7 m/s
15%
22:00
Voelt als: 3.6°
1005.0 hPa 37.0 mm
100%
1.1°
3
Windvlaag: 3.6 m/s
31%
23:00
Voelt als: 3.2°
1004.7 hPa 37.0 mm
100%
1.6°
3
Windvlaag: 4 m/s
50%
 07:00     17:47    Daglengte: 10:47 Woensdag 21 Feb
00:00
Voelt als: 2.3°
1004.4 hPa 37.1 mm
100%
1.7°
4
Windvlaag: 4.7 m/s
80%
Temp/Neerslag /Baro Onweer/Dauwpunt
    Temp Baro Neerslag Dauwpunt Wind Bewolking  
 07:05     17:43    Daglengte: 10:38 Vandaag
01:00
Voelt als: 6.1°
1016.6 hPa 1.4 mm 7.1°
3
81%
04:00
Voelt als: 4.9°
1015.7 hPa 6.6 mm 6.4°
5
81%
07:00
Voelt als: 3.3°
1015.9 hPa 10.2 mm 5.3°
6
81%
10:00
Voelt als: 3.4°
1016.5 hPa 15.4 mm 5.3°
7
81%
13:00
Voelt als: 3.4°
1016.2 hPa 20.7 mm 4.7°
9
80%
16:00
Voelt als: 2.8°
1017.0 hPa 21.2 mm 3.8°
9
81%
19:00
Voelt als: 3.9°
1018.0 hPa 16.6 mm 3.7°
9
81%
22:00
Voelt als: 3.7°
1018.2 hPa 39.1 mm 3.9°
9
80%
 07:03     17:44    Daglengte: 10:41 Morgen
01:00
Voelt als: 4.1°
1017.9 hPa 23.2 mm 4.0°
7
79%
04:00
Voelt als: 3.4°
1017.0 hPa 27.7 mm 3.7°
8
81%
07:00
Voelt als: 3.0°
1017.1 hPa 31.2 mm 3.4°
8
78%
10:00
Voelt als: 3.0°
1017.5 hPa 33.3 mm 3.3°
7
81%
13:00
Voelt als: 2.5°
1016.4 hPa 12.1 mm 2.7°
7
63%
16:00
Voelt als: 2.8°
1015.4 hPa   1.6°
7
40%
19:00
Voelt als: 2.9°
1014.7 hPa   0.5°
6
33%
22:00
Voelt als: 1.5°
1014.8 hPa 35.9 mm 0.7°
5
41%
 07:01     17:46    Daglengte: 10:45 Dinsdag 20 Feb
01:00
Voelt als: 0.3°
1013.4 hPa   0.1°
6
65%
04:00
Voelt als: -0.6°
1011.1 hPa   0.0°
7
61%
07:00
Voelt als: -2.7°
1010.4 hPa   -2.0°
7
63%
10:00
Voelt als: 0.1°
1008.9 hPa 110.9 mm -2.0°
7
13%
13:00
Voelt als: 2.8°
1007.4 hPa 110.9 mm -0.9°
6
7%
16:00
Voelt als: 3.7°
1005.8 hPa 110.9 mm 0.1°
5
36%
19:00
Voelt als: 3.8°
1005.0 hPa 110.9 mm 0.8°
3
0%
22:00
Voelt als: 3.6°
1005.0 hPa 110.9 mm 1.1°
3
31%
 07:00     17:47    Daglengte: 10:47 Woensdag 21 Feb
01:00
Voelt als: 2.2°
1004.0 hPa 111.2 mm 1.5°
4
78%
04:00
Voelt als: 3.6°
1006.7 hPa 0.2 mm 2.4°
2
1%
07:00
Voelt als: 4.5°
1006.4 hPa 1.3 mm 3.8°
2
1%
10:00
Voelt als: 4.3°
1006.9 hPa 1.1 mm 3.5°
5
1%
13:00
Voelt als: 5.1°
1005.8 hPa 1.7 mm 2.7°
6
1%
16:00
Voelt als: 5.2°
1004.6 hPa 0.5 mm 3.1°
5
1%
19:00
Voelt als: 5.0°
1004.9 hPa 0.3 mm 3.5°
4
1%
22:00
Voelt als: 5.2°
1005.2 hPa 0.3 mm 3.9°
4
1%
 06:58     17:48    Daglengte: 10:50 Donderdag 22 Feb
01:00
Voelt als: 5.5°
1004.5 hPa 0.8 mm 4.8°
3
1%
04:00
Voelt als: 4.2°
1002.9 hPa 2.1 mm 5.6°
6
1%
07:00
Voelt als: 3.9°
1002.1 hPa 7.0 mm 5.9°
6
1%
10:00
Voelt als: 4.2°
1002.4 hPa 8.1 mm 6.1°
7
1%
13:00
Voelt als: 5.4°
1002.1 hPa 15.2 mm 7.0°
6
1%
16:00
10°
Voelt als: 6.9°
1002.1 hPa 6.4 mm 8.0°
6
1%
19:00
Voelt als: 6.4°
1003.1 hPa 9.7 mm 7.7°
6
1%
22:00
Voelt als: 5.9°
1004.0 hPa 1.4 mm 7.2°
8
1%
 06:57     17:50    Daglengte: 10:53 Vrijdag 23 Feb
01:00
Voelt als: 4.1°
1003.6 hPa 5.2 mm 6.7°
7
1%
04:00
Voelt als: 3.2°
1003.0 hPa 15.2 mm 6.2°
6
1%
07:00
Voelt als: 2.7°
1004.1 hPa 28.8 mm 5.9°
7
1%
10:00
Voelt als: 3.5°
1006.4 hPa 8.7 mm 6.0°
7
1%
13:00
Voelt als: 3.3°
1007.4 hPa 12.8 mm 5.0°
7
1%
16:00
Voelt als: 4.1°
1007.9 hPa 1.2 mm 4.3°
4
1%
19:00
Voelt als: 4.7°
1010.0 hPa 1.5 mm 4.6°
3
1%
22:00
Voelt als: 4.0°
1012.1 hPa 0.3 mm 4.2°
4
1%
 06:55     17:51    Daglengte: 10:56 Zaterdag 24 Feb
01:00
Voelt als: 2.4°
1013.2 hPa 0.5 mm 2.3°
5
1%
04:00
Voelt als: 1.1°
1013.5 hPa   0.7°
5
1%
07:00
Voelt als: 0.6°
1014.3 hPa   -0.1°
5
1%
10:00
Voelt als: 1.4°
1015.2 hPa   -1.6°
6
0%
13:00
Voelt als: 2.0°
1014.5 hPa   -2.2°
5
0%
16:00
Voelt als: 1.8°
1013.4 hPa   -2.5°
5
1%
19:00
Voelt als: 1.6°
1013.3 hPa   -1.6°
4
1%
22:00
Voelt als: 1.4°
1013.6 hPa   -0.5°
4
1%
 06:53     17:52    Daglengte: 10:59 Zondag 25 Feb
01:00
Voelt als: 0.8°
1013.0 hPa 0.4 mm 1.1°
5
1%
07:00
Voelt als: 0.0°
1011.3 hPa 2.9 mm 1.7°
5
1%
13:00
Voelt als: 0.1°
1010.8 hPa 4.1 mm 2.4°
6
1%
19:00
Voelt als: 1.7°
1010.0 hPa 2.9 mm 3.6°
4
1%
 06:52     17:54    Daglengte: 11:02 Maandag 26 Feb
01:00
Voelt als: 2.5°
1009.1 hPa 3.8 mm 4.4°
4
1%
07:00
Voelt als: 1.9°
1007.8 hPa 3.8 mm 2.9°
4
1%
13:00
Voelt als: 1.9°
1010.8 hPa 2.3 mm 2.1°
4
1%
19:00
Voelt als: 3.2°
1014.2 hPa 0.1 mm 1.4°
2
1%
 06:50     17:55    Daglengte: 11:05 Dinsdag 27 Feb
01:00
Voelt als: 1.0°
1016.6 hPa   -0.3°
2
0%
07:00
Voelt als: 1.2°
1016.9 hPa   0.1°
2
0%
13:00
Voelt als: 5.5°
1017.7 hPa   1.4°
2
0%
19:00
Voelt als: 2.5°
1013.9 hPa 1.0 mm 1.7°
2
0%
 06:48     17:56    Daglengte: 11:08 Woensdag 28 Feb
01:00
Voelt als: 1.4°
1014.6 hPa 1.5 mm 1.2°
3
0%
07:00
Voelt als: 0.8°
1014.0 hPa 1.7 mm 1.1°
3
0%
13:00
Voelt als: 4.8°
1014.6 hPa 1.6 mm 2.4°
3
0%
19:00
Voelt als: 3.1°
1013.8 hPa 0.8 mm 1.2°
2
0%
 06:47     17:58    Daglengte: 11:11 Donderdag 01 Maa
01:00
Voelt als: 3.0°
1014.2 hPa 0.8 mm 0.7°
1
0%
07:00
Voelt als: 2.8°
1013.3 hPa 0.5 mm 0.8°
1
0%
13:00
Voelt als: 6.3°
1013.6 hPa 0.4 mm 2.8°
2
0%
19:00
Voelt als: 3.2°
1013.5 hPa 0.5 mm 2.0°
2
0%
 06:45     17:59    Daglengte: 11:14 Vrijdag 02 Maa
01:00
Voelt als: 3.2°
1014.1 hPa 1.0 mm 2.0°
2
0%
07:00
Voelt als: 4.0°
1013.2 hPa 1.3 mm 2.3°
1
0%
13:00
1013.8 hPa 0.8 mm 3.8°
1
0%
19:00
Voelt als: 5.6°
1013.5 hPa 0.6 mm 3.0°
0
0%
 06:43     18:00    Daglengte: 11:17 Zaterdag 03 Maa
01:00
Voelt als: 4.6°
1014.3 hPa 0.4 mm 2.3°
1
0%
07:00
Voelt als: 3.9°
1013.9 hPa 0.4 mm 2.1°
1
0%
13:00
Voelt als: 8.6°
1013.8 hPa 0.4 mm 3.5°
1
0%
19:00
Voelt als: 6.2°
1012.2 hPa 0.6 mm 2.7°
0
0%
 06:42     18:02    Daglengte: 11:20 Zondag 04 Maa
01:00
1012.0 hPa 0.6 mm 2.4°
1
0%
07:00
1011.7 hPa 0.5 mm 1.9°
1
0%
13:00
Voelt als: 7.8°
1012.5 hPa 0.6 mm 3.2°
2
0%
19:00
Voelt als: 4.8°
1012.0 hPa 0.5 mm 2.7°
2
0%
  CAPE Lifted Index Hail Supercell Tornado SRH 3km CL BTM PRES CL TOP PRES Swiss DWD icon SMHI TS
 07:05     17:43    Daglengte: 10:38 Vandaag
01:00 0 J/kg 3.1 K 0 % 0 % 0 % 0 m²/s² 0 0 3.34
02:00 1 J/kg 3.0 K 0 % 0 % 0 % 0 m²/s² 0 0 3.24
03:00 1 J/kg 3.4 K 0 % 0 % 0 % 0 m²/s² 0 0 3.64
04:00 1 J/kg 3.9 K 0 % 0 % 0 % 0 m²/s² 0 0 4.2
05:00 2 J/kg 4.6 K 0 % 0 % 0 % 0 m²/s² 0 0 4.84
06:00 3 J/kg 5.4 K 0 % 0 % 0 % 0 m²/s² 0 0 5.73
07:00 1 J/kg 5.6 K 0 % 0 % 0 % 0 m²/s² 0 0 5.84
08:00 1 J/kg 6.0 K 0 % 0 % 0 % 0 m²/s² 0 0 6.24
09:00 1 J/kg 6.7 K 0 % 0 % 0 % 0 m²/s² 0 0 6.94
10:00 8 J/kg 7.1 K 0 % 0 % 0 % 0 m²/s² 0 0 7.43
11:00 16 J/kg 7.0 K 0 % 0 % 0 % 0 m²/s² 0 0 7.33
12:00 11 J/kg 7.9 K 0 % 0 % 0 % 0 m²/s² 0 0 8.23
13:00 12 J/kg 7.9 K 0 % 0 % 0 % 0 m²/s² 0 0 8.47
14:00 12 J/kg 8.0 K 0 % 0 % 0 % 0 m²/s² 0 0 9.2
15:00 12 J/kg 8.3 K 0 % 0 % 0 % 0 m²/s² 0 0 9.17
16:00 11 J/kg 8.7 K 0 % 0 % 0 % 0 m²/s² 0 0 9.96
17:00 11 J/kg 9.0 K 0 % 0 % 0 % 0 m²/s² 0 0 10.56
18:00 9 J/kg 9.3 K 0 % 0 % 0 % 0 m²/s² 0 0 11.22
19:00 8 J/kg 9.4 K 0 % 0 % 0 % 0 m²/s² 0 0 11.71
20:00 9 J/kg 9.3 K 0 % 0 % 0 % 0 m²/s² 0 0 11.94
21:00 11 J/kg 8.9 K 0 % 0 % 0 % 0 m²/s² 0 0 11.93
22:00 15 J/kg 8.6 K 0 % 0 % 0 % 0 m²/s² 0 0 11.72
23:00 32 J/kg 8.0 K 0 % 0 % 0 % 0 m²/s² 0 0 10.79
 07:03     17:44    Daglengte: 10:41 Morgen
00:00 50 J/kg 7.4 K 0 % 0 % 0 % 0 m²/s² 0 0 10.04
01:00 65 J/kg 7.4 K 0 % 0 % 0 % 0 m²/s² 0 0 9.98
02:00 54 J/kg 7.6 K 0 % 0 % 0 % 0 m²/s² 0 0 10.09
03:00 48 J/kg 7.6 K 0 % 0 % 0 % 0 m²/s² 0 0 9.88
04:00 45 J/kg 7.7 K 0 % 0 % 0 % 0 m²/s² 0 0 9.71
05:00 28 J/kg 8.1 K 0 % 0 % 0 % 0 m²/s² 0 0 9.99
06:00 21 J/kg 8.3 K 0 % 0 % 0 % 0 m²/s² 0 0 9.95
07:00 26 J/kg 8.3 K 0 % 0 % 0 % 0 m²/s² 0 0 9.74
08:00 65 J/kg 7.4 K 0 % 0 % 0 % 0 m²/s² 0 0 8.48
09:00 61 J/kg 7.1 K 0 % 0 % 0 % 0 m²/s² 0 0 8.03
10:00 38 J/kg 7.6 K 0 % 0 % 0 % 0 m²/s² 0 0 8.77
11:00 28 J/kg 8.0 K 0 % 0 % 0 % 0 m²/s² 0 0 9.23
12:00 29 J/kg 8.2 K 0 % 0 % 0 % 0 m²/s² 0 0 9.37
13:00 22 J/kg 8.6 K 0 % 0 % 0 % 0 m²/s² 0 0 9.83
14:00 19 J/kg 9.0 K 0 % 0 % 0 % 0 m²/s² 0 0 10.38
15:00 17 J/kg 9.0 K 0 % 0 % 0 % 0 m²/s² 0 0 10.65
16:00 17 J/kg 8.9 K 0 % 0 % 0 % 0 m²/s² 0 0 10.7
17:00 15 J/kg 9.0 K 0 % 0 % 0 % 0 m²/s² 0 0 10.68
18:00 17 J/kg 9.1 K 0 % 0 % 0 % 0 m²/s² 0 0 10.72
19:00 21 J/kg 9.0 K 0 % 0 % 0 % 0 m²/s² 0 0 10.68
20:00 23 J/kg 8.9 K 0 % 0 % 0 % 0 m²/s² 0 0 10.7
21:00 26 J/kg 8.8 K 0 % 0 % 0 % 0 m²/s² 0 0 10.6
22:00 29 J/kg 8.6 K 0 % 0 % 0 % 0 m²/s² 0 0 10.4
23:00 26 J/kg 8.5 K 0 % 0 % 0 % 0 m²/s² 0 0 10.24
 07:01     17:46    Daglengte: 10:45 Dinsdag 20 Feb
00:00 18 J/kg 8.6 K 0 % 0 % 0 % 0 m²/s² 0 0 10.16
01:00 18 J/kg 8.6 K 0 % 0 % 0 % 0 m²/s² 0 0 10.16
02:00 25 J/kg 8.5 K 0 % 0 % 0 % 0 m²/s² 0 0 9.91
03:00 35 J/kg 8.4 K 0 % 0 % 0 % 0 m²/s² 0 0 9.6
04:00 28 J/kg 8.7 K 0 % 0 % 0 % 0 m²/s² 0 0 9.87
05:00 10 J/kg 8.6 K 0 % 0 % 0 % 0 m²/s² 0 0 9.77
06:00 0 J/kg 9.4 K 0 % 0 % 0 % 0 m²/s² 0 0 10.66
07:00 0 J/kg 10.0 K 0 % 0 % 0 % 0 m²/s² 0 0 11.17
08:00 0 J/kg 9.2 K 0 % 0 % 0 % 0 m²/s² 0 0 10.19
09:00 0 J/kg 8.7 K 0 % 0 % 0 % 0 m²/s² 0 0 9.54
10:00 0 J/kg 8.8 K 0 % 0 % 0 % 0 m²/s² 0 0 9.79
11:00 0 J/kg 9.1 K 0 % 0 % 0 % 0 m²/s² 0 0 10.21
12:00 0 J/kg 9.1 K 0 % 0 % 0 % 0 m²/s² 0 0 10.36
13:00 2 J/kg 8.5 K 0 % 0 % 0 % 0 m²/s² 0 0 9.7
14:00 6 J/kg 7.9 K 0 % 0 % 0 % 0 m²/s² 0 0 9.07
15:00 9 J/kg 7.4 K 0 % 0 % 0 % 0 m²/s² 0 0 8.6
16:00 10 J/kg 7.2 K 0 % 0 % 0 % 0 m²/s² 0 0 8.52
17:00 10 J/kg 7.1 K 0 % 0 % 0 % 0 m²/s² 0 0 8.63
18:00 10 J/kg 6.9 K 0 % 0 % 0 % 0 m²/s² 0 0 8.7
19:00 9 J/kg 6.4 K 0 % 0 % 0 % 0 m²/s² 0 0 8.2
20:00 7 J/kg 6.1 K 0 % 0 % 0 % 0 m²/s² 0 0 7.66
21:00 10 J/kg 5.7 K 0 % 0 % 0 % 0 m²/s² 0 0 7.05
22:00 9 J/kg 5.0 K 0 % 0 % 0 % 0 m²/s² 0 0 6.29
23:00 6 J/kg 4.2 K 0 % 0 % 0 % 0 m²/s² 0 0 5.61
 07:00     17:47    Daglengte: 10:47 Woensdag 21 Feb
00:00 0 J/kg 3.9 K 0 % 0 % 0 % 0 m²/s² 0 0 5.37
Temp Baro Wind Neerslag
  EWN Forecast EWN WRFDA DWD ICON FMI HIRLAM MET Norway GFS
 07:05     17:43    Daglengte: 10:38 Vandaag
01:00 8.1° 1016.6 hPa 3.2 m/s 1.4 mm 8.6° 1014.4 hPa 3.1 m/s 6.6 mm 8.4° 1016.6 hPa 3.1 m/s 0.0 mm 10.0° 1016.4 hPa 0.9 m/s
04:00 7.8° 1015.7 hPa 4.7 m/s 6.6 mm 8.0° 1013.8 hPa 5.0 m/s 15.6 mm 8.6° 1015.5 hPa 4.7 m/s 0.0 mm 9.3° 1015.5 hPa 1.6 m/s
07:00 6.8° 1015.9 hPa 5.8 m/s 10.2 mm 7.2° 1014.1 hPa 5.0 m/s 26.0 mm 7.7° 1015.6 hPa 6.0 m/s 0.0 mm 8.8° 1015.1 hPa 2.7 m/s
10:00 7.1° 1016.5 hPa 6.6 m/s 15.4 mm 7.6° 1014.6 hPa 6.0 m/s 39.5 mm 8.4° 1016.2 hPa 6.6 m/s 0.0 mm 8.3° 1015.9 hPa 4.3 m/s
13:00 7.7° 1016.2 hPa 9.1 m/s 20.7 mm 8.3° 1015.1 hPa 8.9 m/s 53.7 mm 8.8° 1015.6 hPa 11.6 m/s 0.0 mm 8.9° 1016.3 hPa 2.3 m/s
16:00 7.3° 1017.0 hPa 9.1 m/s 21.2 mm 7.7° 1015.7 hPa 8.5 m/s 56.9 mm 8.2° 1016.8 hPa 12.5 m/s 0.0 mm 9.0° 1016.0 hPa 5.0 m/s
19:00 8.0° 1018.0 hPa 8.8 m/s 16.6 mm 8.0° 1016.6 hPa 8.8 m/s 59.0 mm 8.5° 1017.8 hPa 10.8 m/s 0.0 mm 8.5° 1016.7 hPa 6.5 m/s
22:00 8.0° 1018.2 hPa 9.1 m/s 39.1 mm 7.9° 1016.2 hPa 9.2 m/s 59.4 mm 8.4° 1018.1 hPa 9.9 m/s 0.0 mm 8.1° 1016.7 hPa 6.0 m/s
 07:03     17:44    Daglengte: 10:41 Morgen
01:00 7.7° 1017.9 hPa 6.6 m/s 23.2 mm 7.2° 1016.1 hPa 6.1 m/s 63.8 mm 8.3° 1017.8 hPa 8.9 m/s 0.0 mm 8.1° 1016.5 hPa 5.8 m/s
04:00 7.4° 1017.0 hPa 7.6 m/s 27.7 mm 6.9° 1015.3 hPa 7.3 m/s 80.7 mm 8.0° 1017.0 hPa 9.2 m/s 0.0 mm 8.0° 1015.6 hPa 6.0 m/s
07:00 7.2° 1017.1 hPa 8.0 m/s 31.2 mm 6.8° 1014.8 hPa 7.9 m/s 90.4 mm 7.2° 1017.2 hPa 9.3 m/s 0.0 mm 7.8° 1015.3 hPa 6.0 m/s
10:00 6.9° 1017.5 hPa 7.1 m/s 33.3 mm 6.6° 1015.4 hPa 8.2 m/s 98.4 mm 7.3° 1017.4 hPa 6.5 m/s 0.0 mm 8.0° 1016.1 hPa 4.8 m/s
13:00 6.6° 1016.4 hPa 7.3 m/s 12.1 mm 6.5° 1014.8 hPa 8.4 m/s 109.1 mm 7.4° 1016.2 hPa 7.2 m/s 0.0 mm 7.9° 1015.5 hPa 5.7 m/s
16:00 6.7° 1015.4 hPa 6.8 m/s 0.0 mm 6.7° 1013.8 hPa 7.0 m/s 110.1 mm 6.9° 1015.4 hPa 7.6 m/s 0.0 mm 7.5° 1014.3 hPa 4.5 m/s
19:00 6.4° 1014.7 hPa 5.5 m/s 0.0 mm 6.6° 1013.5 hPa 6.6 m/s 110.1 mm 7.0° 1014.6 hPa 5.0 m/s 0.0 mm 7.1° 1014.3 hPa 2.9 m/s
22:00 5.1° 1014.8 hPa 4.9 m/s 35.9 mm 6.3° 1013.1 hPa 5.9 m/s 110.2 mm 6.9° 1014.5 hPa 2.7 m/s
 07:01     17:46    Daglengte: 10:45 Dinsdag 20 Feb
01:00 4.4° 1013.4 hPa 5.8 m/s 0.0 mm 6.2° 1011.7 hPa 5.6 m/s 110.2 mm 6.3° 1013.4 hPa 3.1 m/s
04:00 4.0° 1011.1 hPa 6.7 m/s 0.0 mm 5.7° 1010.1 hPa 5.3 m/s 110.2 mm 5.3° 1011.9 hPa 4.7 m/s
07:00 2.5° 1010.4 hPa 7.1 m/s 0.0 mm 2.2° 1009.4 hPa 6.9 m/s 110.7 mm 4.3° 1011.4 hPa 4.7 m/s
10:00 4.6° 1008.9 hPa 6.8 m/s 110.9 mm 4.6° 1008.9 hPa 6.8 m/s 110.9 mm 6.0° 1011.5 hPa 5.3 m/s
13:00 6.5° 1007.4 hPa 5.9 m/s 110.9 mm 6.5° 1007.4 hPa 5.9 m/s 110.9 mm 7.6° 1010.0 hPa 4.8 m/s
16:00 6.8° 1005.8 hPa 4.8 m/s 110.9 mm 6.8° 1005.8 hPa 4.8 m/s 110.9 mm 7.6° 1008.2 hPa 3.9 m/s
19:00 6.0° 1005.0 hPa 2.8 m/s 110.9 mm 6.0° 1005.0 hPa 2.8 m/s 110.9 mm 6.6° 1008.0 hPa 2.1 m/s
22:00 5.7° 1005.0 hPa 2.6 m/s 110.9 mm 5.7° 1005.0 hPa 2.6 m/s 110.9 mm 6.0° 1008.7 hPa 2.5 m/s
 07:00     17:47    Daglengte: 10:47 Woensdag 21 Feb
01:00 5.4° 1004.0 hPa 4.3 m/s 111.2 mm 5.4° 1004.0 hPa 4.3 m/s 111.2 mm 5.4° 1007.8 hPa 3.5 m/s
04:00 5.5° 1006.7 hPa 2.5 m/s 0.2 mm 5.5° 1006.7 hPa 2.5 m/s 0.2 mm
07:00 6.3° 1006.4 hPa 2.4 m/s 1.3 mm 6.3° 1006.4 hPa 2.4 m/s 1.3 mm
10:00 7.5° 1006.9 hPa 5.2 m/s 1.1 mm 7.5° 1006.9 hPa 5.2 m/s 1.1 mm
13:00 8.2° 1005.8 hPa 5.9 m/s 1.7 mm 8.2° 1005.8 hPa 5.9 m/s 1.7 mm
16:00 8.2° 1004.6 hPa 5.4 m/s 0.5 mm 8.2° 1004.6 hPa 5.4 m/s 0.5 mm
19:00 7.8° 1004.9 hPa 4.4 m/s 0.3 mm 7.8° 1004.9 hPa 4.4 m/s 0.3 mm
22:00 7.7° 1005.2 hPa 3.8 m/s 0.3 mm 7.7° 1005.2 hPa 3.8 m/s 0.3 mm
 06:58     17:48    Daglengte: 10:50 Donderdag 22 Feb
01:00 7.7° 1004.5 hPa 3.4 m/s 0.8 mm 7.7° 1004.5 hPa 3.4 m/s 0.8 mm
04:00 7.7° 1002.9 hPa 6.3 m/s 2.1 mm 7.7° 1002.9 hPa 6.3 m/s 2.1 mm
07:00 7.5° 1002.1 hPa 6.4 m/s 7.0 mm 7.5° 1002.1 hPa 6.4 m/s 7.0 mm
10:00 7.8° 1002.4 hPa 6.7 m/s 8.1 mm 7.8° 1002.4 hPa 6.7 m/s 8.1 mm
13:00 8.6° 1002.1 hPa 6.1 m/s 15.2 mm 8.6° 1002.1 hPa 6.1 m/s 15.2 mm
16:00 9.7° 1002.1 hPa 6.0 m/s 6.4 mm 9.7° 1002.1 hPa 6.0 m/s 6.4 mm
19:00 9.4° 1003.1 hPa 6.3 m/s 9.7 mm 9.4° 1003.1 hPa 6.3 m/s 9.7 mm
22:00 9.4° 1004.0 hPa 8.3 m/s 1.4 mm 9.4° 1004.0 hPa 8.3 m/s 1.4 mm
 06:57     17:50    Daglengte: 10:53 Vrijdag 23 Feb
01:00 7.8° 1003.6 hPa 7.0 m/s 5.2 mm 7.8° 1003.6 hPa 7.0 m/s 5.2 mm
04:00 6.8° 1003.0 hPa 5.8 m/s 15.2 mm 6.8° 1003.0 hPa 5.8 m/s 15.2 mm
07:00 6.7° 1004.1 hPa 7.0 m/s 28.8 mm 6.7° 1004.1 hPa 7.0 m/s 28.8 mm
10:00 7.4° 1006.4 hPa 7.0 m/s 8.7 mm 7.4° 1006.4 hPa 7.1 m/s 8.7 mm
13:00 7.0° 1007.4 hPa 6.6 m/s 12.8 mm 7.0° 1007.4 hPa 6.6 m/s 12.8 mm
16:00 6.8° 1007.9 hPa 4.1 m/s 1.2 mm 6.8° 1007.9 hPa 4.1 m/s 1.2 mm
19:00 6.6° 1010.0 hPa 2.7 m/s 1.5 mm 6.6° 1010.0 hPa 2.7 m/s 1.5 mm
22:00 6.5° 1012.1 hPa 3.6 m/s 0.3 mm 6.5° 1012.1 hPa 3.6 m/s 0.3 mm
 06:55     17:51    Daglengte: 10:56 Zaterdag 24 Feb
01:00 6.0° 1013.2 hPa 5.3 m/s 0.5 mm 6.0° 1013.2 hPa 5.3 m/s 0.5 mm
04:00 4.9° 1013.5 hPa 5.5 m/s 0.0 mm 4.9° 1013.5 hPa 5.5 m/s 0.0 mm
07:00 4.5° 1014.3 hPa 5.1 m/s 0.0 mm 4.5° 1014.3 hPa 5.1 m/s 0.0 mm
10:00 5.2° 1015.2 hPa 5.6 m/s 0.0 mm 5.2° 1015.2 hPa 5.6 m/s 0.0 mm
13:00 5.7° 1014.5 hPa 5.4 m/s 0.0 mm 5.7° 1014.5 hPa 5.4 m/s 0.0 mm
16:00 5.3° 1013.4 hPa 4.8 m/s 0.0 mm 5.3° 1013.4 hPa 4.8 m/s 0.0 mm
19:00 4.8° 1013.3 hPa 4.0 m/s 0.0 mm 4.8° 1013.3 hPa 4.0 m/s 0.0 mm
22:00 4.7° 1013.6 hPa 4.2 m/s 0.0 mm 4.7° 1013.6 hPa 4.2 m/s 0.1 mm
 06:53     17:52    Daglengte: 10:59 Zondag 25 Feb
01:00 4.6° 1013.0 hPa 5.0 m/s 0.3 mm 4.6° 1013.0 hPa 5.0 m/s 0.3 mm
07:00 4.0° 1011.3 hPa 5.1 m/s 2.1 mm 4.0° 1011.3 hPa 5.1 m/s 2.1 mm
13:00 4.2° 1010.8 hPa 5.5 m/s 2.6 mm 4.2° 1010.8 hPa 5.5 m/s 2.6 mm
19:00 4.9° 1010.0 hPa 4.1 m/s 1.8 mm 4.9° 1010.0 hPa 4.1 m/s 1.8 mm
 06:52     17:54    Daglengte: 11:02 Maandag 26 Feb
01:00 5.5° 1009.1 hPa 3.9 m/s 2.4 mm 5.5° 1009.1 hPa 3.9 m/s 2.4 mm
07:00 5.1° 1007.8 hPa 4.1 m/s 2.4 mm 5.1° 1007.8 hPa 4.1 m/s 2.4 mm
13:00 4.9° 1010.8 hPa 3.7 m/s 1.3 mm 4.9° 1010.8 hPa 3.7 m/s 1.3 mm
19:00 5.1° 1014.2 hPa 2.3 m/s 0.0 mm 5.1° 1014.2 hPa 2.3 m/s 0.1 mm
 06:50     17:55    Daglengte: 11:05 Dinsdag 27 Feb
01:00 3.0° 1016.6 hPa 2.0 m/s 0.0 mm 3.0° 1016.6 hPa 2.0 m/s 0.0 mm
07:00 2.7° 1016.9 hPa 1.6 m/s 0.0 mm 2.7° 1016.9 hPa 1.6 m/s 0.0 mm
13:00 7.1° 1017.7 hPa 2.4 m/s 0.0 mm 7.1° 1017.7 hPa 2.4 m/s 0.0 mm
19:00 4.6° 1013.9 hPa 2.4 m/s 1.0 mm
 06:48     17:56    Daglengte: 11:08 Woensdag 28 Feb
01:00 3.9° 1014.6 hPa 2.7 m/s 1.5 mm
07:00 3.5° 1014.0 hPa 2.9 m/s 1.7 mm
13:00 6.7° 1014.6 hPa 2.6 m/s 1.6 mm
19:00 4.3° 1013.8 hPa 1.6 m/s 0.8 mm
 06:47     17:58    Daglengte: 11:11 Donderdag 01 Maa
01:00 3.7° 1014.2 hPa 1.2 m/s 0.8 mm
07:00 3.4° 1013.3 hPa 1.1 m/s 0.5 mm
13:00 7.3° 1013.6 hPa 1.7 m/s 0.4 mm
19:00 5.0° 1013.5 hPa 2.1 m/s 0.5 mm
 06:45     17:59    Daglengte: 11:14 Vrijdag 02 Maa
01:00 4.5° 1014.1 hPa 1.7 m/s 1.0 mm
07:00 4.4° 1013.2 hPa 1.1 m/s 1.3 mm
13:00 8.2° 1013.8 hPa 0.9 m/s 0.8 mm
19:00 5.6° 1013.5 hPa 0.4 m/s 0.6 mm
 06:43     18:00    Daglengte: 11:17 Zaterdag 03 Maa
01:00 4.6° 1014.3 hPa 0.7 m/s 0.4 mm
07:00 4.2° 1013.9 hPa 1.0 m/s 0.4 mm
13:00 8.6° 1013.8 hPa 1.1 m/s 0.4 mm
19:00 6.2° 1012.2 hPa 0.2 m/s 0.6 mm
 06:42     18:02    Daglengte: 11:20 Zondag 04 Maa
01:00 5.2° 1012.0 hPa 0.7 m/s 0.6 mm
07:00 4.5° 1011.7 hPa 0.7 m/s 0.5 mm
13:00 8.5° 1012.5 hPa 1.6 m/s 0.6 mm
19:00 6.2° 1012.0 hPa 2.0 m/s 0.5 mm
FMI Hirlam - 7.5 km EWN WRFDA - 12 km DWD ICON - 7 km GFS - 25 km Basiskaart






























































Updatetijd (Europe/Amsterdam) Resolutie Lengte Stap
FMI Hirlam 00:00, 06:00, 12:00, 18:00 7.5 km 49h 1h
EWN WRFDA 20:00, 02:00, 08:00, 14:00 12 km 73h 1h
DWD ICON 23:45, 05:45, 11:45, 17:45 7 km 75h 1h
GFS 20:15, 02:15, 08:15, 14:15 25 km 237h 3h
30+ mm
25-30 mm
20-25 mm
15-20 mm
10-15 mm
6-10 mm
4-6 mm
2-4 mm
1-2 mm
0.5-1 mm
0.2-0.5 mm
0.1-0.2 mm
30+ mm
25-30 mm
20-25 mm
15-20 mm
10-15 mm
6-10 mm
4-6 mm
2-4 mm
1-2 mm
0.5-1 mm
0.2-0.5 mm
0.1-0.2 mm
Sneeuwval
Natte sneeuw
Hagel
Vorst
30+ mm
25-30 mm
20-25 mm
15-20 mm
10-15 mm
6-10 mm
4-6 mm
2-4 mm
1-2 mm
0.5-1 mm
0.2-0.5 mm
0.1-0.2 mm
Sneeuwval
Natte sneeuw
Hagel
Vorst
Onweer
50 mm
40 mm
30 mm
26 mm
22 mm
18 mm
14 mm
10 mm
9 mm
8 mm
7 mm
6 mm
5 mm
4.5 mm
4 mm
3.5 mm
3 mm
2.5 mm
2 mm
1.5 mm
1 mm
0.8 mm
0.6 mm
0.4 mm
0.2 mm
0.05 mm